Location: ??????
(36.0418°N, 43.6351°E)
Time: 03:10:47
(UTC+00:00)

Lacrosse 4 Rocket - Pass Details

Date: 07 March 2021
Orbit: 537 x 620 km, 68.0° (Epoch: 22 April)

Event Time Altitude Azimuth Distance (km) Brightness Sun altitude
Exits shadow 02:15:20 13° 316° (NW) 1,763 3.5 -15.4°
Maximum altitude 02:18:55 40° 250° (WSW) 901 1.9 -14.7°
Drops below altitude 10° 02:22:57 10° 181° (S) 1,921 4.0 -13.9°
Sets 02:25:15 0° 174° (S) 2,804 5.0 -13.4°
